This demonstration page uses our WeatherBlox Daily Observations layout. Learn more.

Left ArrowRight Arrow

Hourly Observations for October 28, 2015

Temp ( °F °C ) Dew Point ( °F °C ) Humidity (%) Winds ( mph kmh ) Pressure ( in mb ) Visibility ( mi km ) Precip ( " mm )
12:53 am 00:53 Cloudy with Light Rain 57 13.9 54 12.2 90 90 ENE 8 13 29.91 1013 9 14 0.01 0.25
1:53 am 01:53 Cloudy with Mist and Fog 57 13.9 55 12.8 93 93 E 6 9 29.89 1012 3 5 0.01 0.25
2:53 am 02:53 Cloudy with Mist and Fog 57 13.9 55 12.8 93 93 ENE 5 7 29.87 1012 3 5 0.01 0.25
3:53 am 03:53 Cloudy 57 13.9 55 12.8 93 93 ENE 6 9 29.85 1011 10 16 0.00 0.03
4:28 am 04:28 Cloudy with Rain 57 14 55 13 94 94 NE 5 7 29.83 1010 3 4 0.00 0.00
4:41 am 04:41 Cloudy with Rain 57 13.9 56 13.3 96 96 Calm 29.83 1010 3 5 0.07 1.78
4:53 am 04:53 Cloudy with Light Rain 57 13.9 56 13.3 96 96 Calm 29.83 1010 8 13 0.07 1.78
5:06 am 05:06 Cloudy with Light Rain 58 14.4 56 13.3 93 93 ENE 3 6 29.83 1010 9 14 0.00 0.03
5:18 am 05:18 Cloudy with Rain 57 14 55 13 94 94 VRB 6 9 29.83 1010 3 4 0.00 0.00
5:27 am 05:27 Cloudy with Light Rain 57 14 57 14 100 100 ENE 5 7 29.83 1010 3 5 0.00 0.00
5:44 am 05:44 Cloudy with Light Rain 59 15 57 14 94 94 E 3 6 29.83 1010 9 14 0.00 0.00
5:53 am 05:53 Cloudy with Light Rain 59 15 57 13.9 93 93 E 5 7 29.81 1010 9 14 0.04 1.02
6:53 am 06:53 Cloudy 59 15 58 14.4 96 96 E 3 6 29.80 1009 9 14 0.01 0.25
7:53 am 07:53 Cloudy 62 16.7 59 15 90 90 Calm 29.80 1009 10 16 0.01 0.25
8:36 am 08:36 Cloudy 61 16 61 16 100 100 Calm 29.80 1009 10 16 0.00 0.00
8:53 am 08:53 Cloudy 62 16.7 60 15.6 93 93 Calm 29.80 1009 10 16 0.00 0.00
9:50 am 09:50 Cloudy 63 17 61 16 94 94 Calm 29.83 1010 10 16 0.00 0.00
9:53 am 09:53 Cloudy 63 17.2 61 16.1 93 93 Calm 29.80 1009 10 16 0.00 0.00
10:53 am 10:53 Cloudy with Light Rain 67 19.4 65 18.3 93 93 Calm 29.80 1009 5 8 0.01 0.25
11:53 am 11:53 Cloudy 69 20.6 66 18.9 90 90 SSW 6 9 29.79 1009 10 16 0.00 0.03
12:28 pm 12:28 Cloudy 70 21 66 19 88 88 VRB 7 11 29.77 1008 10 16 0.00 0.00
12:51 pm 12:51 Cloudy with Light Rain 68 20 64 18 88 88 SW 9 15 29.77 1008 8 13 0.01 0.25
12:53 pm 12:53 Cloudy with Light Rain 68 20 64 17.8 87 87 WSW 7 11 29.79 1009 8 13 0.01 0.25
1:30 pm 13:30 Mostly Cloudy 72 22 64 18 78 78 SW 8 13 29.77 1008 10 16 0.00 0.00
1:53 pm 13:53 Mostly Cloudy 73 22.8 66 18.9 79 79 W 8 13 29.77 1008 10 16 0.00 0.03
2:53 pm 14:53 Mostly Cloudy 76 24.4 62 16.7 62 62 SW 13 20 29.73 1007 10 16 0.00 0.00
3:00 pm 15:00 Sunny 75 24 63 17 65 65 WSW 9 15 29.74 1007 10 16 0.00 0.00
3:53 pm 15:53 Mostly Sunny 77 25 61 16.1 58 58 SW 13 20 29.74 1007 10 16 0.00 0.00
4:53 pm 16:53 Mostly Sunny 77 25 59 15 54 54 WSW 8 13 29.75 1007 10 16 0.00 0.00
5:53 pm 17:53 Mostly Cloudy 74 23.3 60 15.6 62 62 W 9 15 29.76 1008 10 16 0.00 0.00
6:53 pm 18:53 Mostly Clear 71 21.7 60 15.6 68 68 SW 3 6 29.77 1008 10 16 0.00 0.00
7:53 pm 19:53 Clear 67 19.4 60 15.6 79 79 SSW 5 7 29.79 1009 10 16 0.00 0.00
8:53 pm 20:53 Clear 64 17.8 60 15.6 87 87 Calm 29.80 1009 10 16 0.00 0.00
9:53 pm 21:53 Clear 62 16.7 58 14.4 86 86 Calm 29.81 1010 10 16 0.00 0.00
10:53 pm 22:53 Clear 59 15 57 13.9 93 93 Calm 29.83 1010 10 16 0.00 0.00
11:01 pm 23:01 Clear with Mist and Fog 59 15 57 13.9 93 93 Calm 29.85 1011 2 3 0.00 0.00
11:08 pm 23:08 Clear 59 15 57 14 94 94 Calm 29.85 1011 10 16 0.00 0.00
11:53 pm 23:53 Clear 58 14.4 56 13.3 93 93 Calm 29.83 1010 10 16 0.00 0.00

Powered by AerisWeather